Preview of NWS' New Version of Forecast
This preview is not operational and should not be used for support decisions.

Regional Weather Roundup (RWR)

Issued by National Weather Service (NWS)

                            
000
ASUS42 KTBW 200217
RWRFL 
FLORIDA REGIONAL WEATHER ROUNDUP
NATIONAL WEATHER SERVICE TAMPA BAY RUSKIN FL
900 PM EST TUE FEB 19 2019

NOTE: "FAIR" INDICATES FEW OR NO CLOUDS BELOW 12,000 FEET WITH NO
SIGNIFICANT WEATHER AND/OR OBSTRUCTIONS TO VISIBILITY.

FLZ001>010-012>015-112-114-115-200300-
PANHANDLE FLORIDA
  
CITY           SKY/WX    TMP DP  RH WIND       PRES   REMARKS
PENSACOLA      CLOUDY    65  62  90 E14       30.05S                  
PENSACOLA NAS  DRIZZLE   65  65 100 E13G23    30.04S FOG              
MILTON NAS     LGT RAIN  64  62  93 E9        30.07  FOG              
CRESTVIEW      CLOUDY    66  54  65 E7        30.10R                  
DUKE FIELD     CLOUDY    67  57  68 SE5       30.08R                  
VALPARAISO     CLOUDY    66  62  89 SE9       30.07S                  
MARY ESTHER    CLOUDY    67  63  87 SE13      30.06                   
PANAMA CITY    CLOUDY    70  58  65 NE7       30.09S                  
TYNDALL AFB    CLOUDY    70  62  78 E8        30.10S                  
APALACHICOLA   CLOUDY    66  60  81 E13G21    30.13R                  

STATION/POSITION SKY/WX   TEMP    WIND        PRES    WAVE   SWELL
                          AIR SEA DIR/SP/G            HT/PER HT/PER
                          (F)     (DEG/KT/KT) (MB)    (FT/S) (FT/S)
30.1N   87.6W              67     110/ 14/ 17   N/A     6/ 6   2/12
29.2N   88.2W                     120/ 12/ 16 1015.6R   5/ 7   3/ 7
PANAMA CITY BEAC           70 62   90/  8/ 13 1019.4R
TOWER C                    66      80/ 19/ 20 1020.3R

$$
FLZ011-016>038-118-127-128-134-139-239-200300-
NORTH FLORIDA
  
CITY           SKY/WX    TMP DP  RH WIND       PRES   REMARKS
MARIANNA       CLOUDY    60  57  89 E15G22    30.15R                  
TALLAHASSEE    CLOUDY    62  57  83 E17       30.18R                  
PERRY          CLOUDY    61  57  86 E13G20    30.21R                  
LIVE OAK       CLOUDY    57  55  94 NE7       30.23R                  
CROSS CITY     CLOUDY    63  60  90 NE12      30.19R                  
LAKE CITY      CLOUDY    55  54  94 NE7G18    30.22S                  
GAINESVILLE    CLOUDY    64  59  83 NE10      30.22R                  
WILLISTON        N/A    N/A N/A N/A MISG        N/A                   
PALATKA        CLOUDY   N/A N/A N/A NE5       30.20S                  
MAYPORT NAS    CLOUDY    59  58  96 N22G31    30.23R                  
JACKSONVILLE   CLOUDY    58  56  93 N13       30.24R                  
JAX NAS        CLOUDY    61  60  97 N15       30.24R                  
JAX CECIL      CLOUDY    59  59 100 NE12      30.23R                  
FERNANDINA BEA CLOUDY    57  56  97 NE21G29   30.24S                  
ST AUGUSTINE   CLOUDY    63  61  94 N10       30.22R                  
PALM COAST     CLOUDY    67  65  93 NE3       30.19S FOG              

STATION/POSITION SKY/WX   TEMP    WIND        PRES    WAVE   SWELL
                          AIR SEA DIR/SP/G            HT/PER HT/PER
                          (F)     (DEG/KT/KT) (MB)    (FT/S) (FT/S)
SHELL POINT      NOT AVBL
KEATON BEACH               62      60/ 13/ 20 1021.9
CEDAR KEY                  67      60/ 17/ 18 1021.6R
FERNANDINA                 58 60   10/ 12/ 21 1025.0R
30.7N   81.3W                 59                N/A     7/ 8
MAYPORT                    59 60   10/ 17/ 22 1023.5R
31.4N   80.9W              58 58   40/ 25/ 31 1024.3R   8/ 8
ST AUGUSTINE               61 61  340/  8/  9 1023.0R

$$
FLZ040-043>046-052-053-057-058-063-144-200300-
INTERIOR CENTRAL FLORIDA
  
CITY           SKY/WX    TMP DP  RH WIND       PRES   REMARKS
OCALA          CLOUDY    66  63  90 VRB5      30.18R                  
LEESBURG       MOCLDY    72  69  90 NE7       30.17R                  
SANFORD        FAIR      72  69  90 SE8       30.18R                  
ORLANDO EXEC   FAIR      74  68  81 SE13      30.18R                  
ORLANDO INTL   FAIR      74  67  78 E13       30.18R                  
KISSIMMEE      FAIR      74  68  81 SE9       30.18R                  
WINTER HAVEN   FAIR      78  67  68 SE10      30.17R                  
LAKELAND       CLEAR     77  64  65 SE8       30.16R                  
BARTOW         FAIR      75  66  73 E8        30.15R                  
SEBRING        FAIR      73  67  82 E6        30.16R                  
OKEECHOBEE     FAIR      72  68  88 CALM      30.16R                  

$$
FLZ041-047-054-059-064-141-147-200300-
EAST CENTRAL FLORIDA
  
CITY           SKY/WX    TMP DP  RH WIND       PRES   REMARKS
DAYTONA BEACH  FOG       70  70 100 VRB5      30.19R VSB 1            
DELAND         CLOUDY    73  68  83 SE10      30.18R                  
NEW SMYRNA BEA FOG       68  68 100 E6        30.20R VSB 1            
JFK SPACE CTR  FAIR      73 N/A N/A SE9       30.19R                  
TITUSVILLE     CLEAR     75  70  83 SE6       30.19R                  
CAPE CANAVERAL FAIR      71  68  90 SE10      30.17R                  
PATRICK AFB    FAIR      70  70 100 SE8       30.18R                  
MELBOURNE      FAIR      73  68  84 E9        30.18R                  
VERO BEACH     FAIR      73  69  87 E8        30.17R                  
FT PIERCE      FAIR      74  69  85 E9        30.17R                  
STUART         MOCLDY    75  66  73 SE9       30.18R                  

STATION/POSITION SKY/WX   TEMP    WIND        PRES    WAVE   SWELL
                          AIR SEA DIR/SP/G            HT/PER HT/PER
                          (F)     (DEG/KT/KT) (MB)    (FT/S) (FT/S)
28.5N   80.2W              73     120/ 12/ 14 1022.7
28.9N   78.5W              76 77  130/ 16/ 19 1024.0R   6/ 8   3/ 8
TRIDENT PIER               69 69  100/  5/  8 1023.2R
28.4N   80.5W                 64                N/A     2/ 8

$$
FLZ050-056-061-142-242-148-248-149-249-151-251-155-255-
160-260-200300-
WEST CENTRAL FLORIDA
  
CITY           SKY/WX    TMP DP  RH WIND       PRES   REMARKS
CRYSTAL RIVER  LGT RAIN  70  66  88 E6        30.16R                  
INVERNESS      MOCLDY    72  72 100 NE8       30.16R                  
BROOKSVILLE    CLOUDY    76  67  73 CALM      30.15R                  
CLEARWATER AIR FAIR      73  63  68 CALM      30.14R                  
ST PETE CLEARW FAIR      73  65  75 CALM      30.14R                  
TAMPA INTL     FAIR      77  66  68 CALM      30.14R                  
TAMPA EXEC     FAIR      77  64  65 S5        30.15R                  
PLANT CITY     FAIR      77  66  69 SE7       30.17R                  
MACDILL AFB    FAIR      70  65  84 CALM      30.13R                  
PETER O KNIGHT MOCLDY    77  68  73 S6        30.14R                  
ST PETERSBURG  MOCLDY    76  66  71 CALM      30.12R                  
SARASOTA       FAIR      73  67  81 SE5       30.12R                  
VENICE         FAIR      73  70  88 E3        30.13R                  

STATION/POSITION SKY/WX   TEMP    WIND        PRES    WAVE   SWELL
                          AIR SEA DIR/SP/G            HT/PER HT/PER
                          (F)     (DEG/KT/KT) (MB)    (FT/S) (FT/S)
27.3N   84.2W                 71                N/A     3/ 8
CLEARWATER BEACH           76 71   90/  2/  3 1020.4R
MIDDLE TAMPA BAY           72      90/  4/  5 1020.5R
VENICE                     74 69   90/  4/  4   N/A

$$
FLZ066-069-070-075>078-162-262-165-265-200300-
SOUTHWEST FLORIDA AND KEYS
  
CITY           SKY/WX    TMP DP  RH WIND       PRES   REMARKS
PUNTA GORDA    FAIR      74  63  68 E8        30.15R                  
FT MYERS       FAIR      75  64  68 SE10      30.12R                  
SOUTHWEST INTL FAIR      74  64  71 E9        30.13R                  
NAPLES         FAIR      76  63  64 E8        30.12R                  
MARCO ISLAND   FAIR     N/A N/A N/A E6        30.13R                  
IMMOKALEE      FAIR      72  64  78 E6        30.12R                  
MARATHON       FAIR      81  71  71 E8G18     30.10S                  
KEY WEST NAS   FAIR      79  72  79 E18       30.09R                  
KEY WEST INTL  FAIR      79  72  79 E17       30.09S                  

STATION/POSITION SKY/WX   TEMP    WIND        PRES    WAVE   SWELL
                          AIR SEA DIR/SP/G            HT/PER HT/PER
                          (F)     (DEG/KT/KT) (MB)    (FT/S) (FT/S)
NAPLES                     76 74  100/  4/  7 1019.9R
26.0N   85.6W              78 80  130/ 16/ 21 1017.4R   6/ 7
DRY TORTUGAS               77     120/ 15/ 18 1018.4R
SAND KEY                   77                 1018.6R
SOMBRERO KEY               78                 1018.6R
LONG KEY                   78 79  100/ 13/ 15 1019.4R
MOLASSES REEF                     110/ 12       N/A

$$
FLZ067-068-071>074-168-172>174-200300-
SOUTHEAST FLORIDA 
  
CITY           SKY/WX    TMP DP  RH WIND       PRES   REMARKS
W PALM BEACH   FAIR      76  67  73 SE12      30.16R                  
BOCA RATON     PTCLDY    77  68  73 SE10      30.15R                  
FT LAUDER-EXEC FAIR      77  71  82 E12       30.14R                  
FT LAUDERDALE  MOCLDY    77  72  84 E15       30.13S                  
POMPANO BEACH  FAIR      77  69  76 E14       30.15R                  
PEMBROKE PINES MOCLDY    77  69  76 E10       30.15R                  
OPA LOCKA      MOCLDY    77  69  76 E14       30.14S                  
MIAMI          FAIR      76  72  87 E12       30.13S                  
WEST KENDALL   FAIR      76  71  85 E12       30.13R                  
HOMESTEAD      MOCLDY    77  72  83 E10       30.12S                  

STATION/POSITION SKY/WX   TEMP    WIND        PRES    WAVE   SWELL
                          AIR SEA DIR/SP/G            HT/PER HT/PER
                          (F)     (DEG/KT/KT) (MB)    (FT/S) (FT/S)
PORT EVERGLADES            77      90/  7/ 13 1020.6
VIRGINIA KEY               78 79   80/ 13/ 17 1019.7S
LAKE WORTH                 77 78  130/ 14/ 16 1022.3R
FOWEY ROCKS                77 78   90/ 21/ 22 1020.7F
SETTLEMENT POINT           76     120/ 13/ 16 1021.8R

$$